This is the latest recevied weather packets stored in our database for station/object IK2ILW-6. If no packets are shown the sender has not sent any weather packets the latest 10 day(s).
| Time | Temp. | Humidity | Pressure | Rain* | Wind** | Luminosity | Snow |
|---|---|---|---|---|---|---|---|
| 1778157993 | 3.89° C | 90% | 1014.3 hPa | 3.05 mm | - | 158 W/m² | - |
| 1778157697 | 3.33° C | 90% | 1014.2 hPa | 3.05 mm | - | 141 W/m² | - |
| 1778157384 | 3.33° C | 90% | 1014.2 hPa | 4.06 mm | - | 149 W/m² | - |
| 1778157090 | 3.33° C | 90% | 1014.2 hPa | 3.05 mm | - | 144 W/m² | - |
| 1778156793 | 3.33° C | 90% | 1014.2 hPa | 4.06 mm | - | 146 W/m² | - |
| 1778156497 | 3.33° C | 90% | 1014.2 hPa | 5.08 mm | - | 130 W/m² | - |
| 1778156200 | 3.89° C | 92% | 1014.2 hPa | 5.08 mm | - | 116 W/m² | - |
| 1778155884 | 3.89° C | 94% | 1014.1 hPa | 5.08 mm | - | 84 W/m² | - |
| 1778155589 | 4.44° C | 95% | 1014.1 hPa | 6.1 mm | - | 93 W/m² | - |
| 1778155293 | 4.44° C | 95% | 1014 hPa | 5.08 mm | - | 114 W/m² | - |
| 1778154997 | 3.89° C | 94% | 1014.2 hPa | 5.08 mm | - | 83 W/m² | - |
| 1778154700 | 3.89° C | 93% | 1014 hPa | 5.08 mm | - | 149 W/m² | - |
| 1778154388 | 3.89° C | 93% | 1014.1 hPa | 4.06 mm | - | 195 W/m² | - |
| 1778154093 | 3.89° C | 92% | 1014.1 hPa | 4.06 mm | - | 176 W/m² | - |
| 1778153797 | 3.89° C | 94% | 1014 hPa | 3.05 mm | - | 237 W/m² | - |
| 1778153502 | 3.33° C | 94% | 1014.1 hPa | 3.05 mm | - | 241 W/m² | - |
| 1778153188 | 3.33° C | 93% | 1014.1 hPa | 2.03 mm | - | 309 W/m² | - |
| 1778152893 | 3.33° C | 93% | 1014 hPa | 1.02 mm | - | 274 W/m² | - |
| 1778152598 | 3.33° C | 93% | 1014.1 hPa | 1.02 mm | - | 185 W/m² | - |
| 1778152283 | 3.89° C | 94% | 1014.1 hPa | 1.02 mm | - | 123 W/m² | - |
| 1778151988 | 3.89° C | 93% | 1014.1 hPa | 0 mm | - | 98 W/m² | - |
| 1778151691 | 3.89° C | 93% | 1014.1 hPa | 0 mm | - | 91 W/m² | - |
| 1778151395 | 3.89° C | 92% | 1014.1 hPa | 0 mm | - | 290 W/m² | - |
| 1778151084 | 3.89° C | 92% | 1014 hPa | 0 mm | - | 360 W/m² | - |
| 1778150787 | 4.44° C | 93% | 1014 hPa | 0 mm | - | 246 W/m² | - |
* Rain latest hour (hover to see other rain measurements)
** Current wind speed in m/s (hover to see current wind gust speed)